This is the latest recevied weather packets stored in our database for station/object N3AVN. If no packets are shown the sender has not sent any weather packets the latest 1 day(s).
| Time | Temp. | Humidity | Pressure | Rain* | Wind** | Luminosity | Snow |
|---|---|---|---|---|---|---|---|
| 1777979849 | 11.11° C | 92% | 1009 hPa | 0 mm | 0.89 m/s, 135° | 72 W/m² | - |
| 1777979545 | 11.11° C | 93% | 1009.1 hPa | 0 mm | 1.34 m/s, 90° | 45 W/m² | - |
| 1777979241 | 10.56° C | 94% | 1009.1 hPa | 0 mm | 0 m/s | 38 W/m² | - |
| 1777978939 | 10.56° C | 94% | 1009 hPa | 0 mm | 0.45 m/s, 111° | 35 W/m² | - |
| 1777978635 | 10° C | 95% | 1008.9 hPa | 0 mm | 0.89 m/s, 112° | 34 W/m² | - |
| 1777978331 | 10° C | 95% | 1008.7 hPa | 0 mm | 1.34 m/s, 104° | 31 W/m² | - |
| 1777978028 | 10° C | 96% | 1008.8 hPa | 0 mm | 0 m/s | 29 W/m² | - |
| 1777977725 | 10° C | 96% | 1008.9 hPa | 0 mm | 0.45 m/s, 32° | 26 W/m² | - |
| 1777977422 | 9.44° C | 97% | 1008.8 hPa | 0 mm | 1.34 m/s, 112° | 23 W/m² | - |
| 1777977120 | 9.44° C | 97% | 1009 hPa | 0 mm | 1.34 m/s, 40° | 21 W/m² | - |
| 1777976817 | 8.89° C | 97% | 1008.8 hPa | 0 mm | 0.89 m/s, 59° | 17 W/m² | - |
| 1777976514 | 8.89° C | 97% | 1008.6 hPa | 0 mm | 0 m/s | 13 W/m² | - |
| 1777976214 | 8.89° C | 97% | 1008.6 hPa | 0 mm | 0.89 m/s, 180° | 11 W/m² | - |
| 1777975909 | 7.78° C | 97% | 1008.6 hPa | 0 mm | 0 m/s | 7 W/m² | - |
| 1777975605 | 7.78° C | 97% | 1008.7 hPa | 0 mm | 0.89 m/s, 159° | 6 W/m² | - |
| 1777975303 | 7.78° C | 97% | 1008.6 hPa | 0 mm | 0 m/s | 4 W/m² | - |
| 1777974998 | 7.78° C | 96% | 1008.6 hPa | 0 mm | 0 m/s | 2 W/m² | - |
| 1777974696 | 7.22° C | 96% | 1008.9 hPa | 0 mm | 0.45 m/s, 126° | 0 W/m² | - |
| 1777974392 | 7.78° C | 96% | 1008.8 hPa | 0 mm | 0 m/s | 0 W/m² | - |
| 1777974088 | 7.78° C | 96% | 1008.7 hPa | 0 mm | 0 m/s | 0 W/m² | - |
| 1777973784 | 7.22° C | 96% | 1008.4 hPa | 0 mm | 0 m/s | 0 W/m² | - |
| 1777973481 | 7.22° C | 96% | 1008.5 hPa | 0 mm | 0 m/s | 0 W/m² | - |
| 1777973179 | 7.22° C | 96% | 1008.6 hPa | 0 mm | 0 m/s | 0 W/m² | - |
| 1777972878 | 7.22° C | 95% | 1008.8 hPa | 0 mm | 0 m/s | 0 W/m² | - |
| 1777972574 | 7.22° C | 95% | 1008.6 hPa | 0 mm | 0 m/s | 0 W/m² | - |
* Rain latest hour (hover to see other rain measurements)
** Current wind speed in m/s (hover to see current wind gust speed)